Track STARLINK-1210 now! 10-day predictions STARLINK-1210 is classified as:
1 45207U 20012AF 22146.60414515 .00003248 00000-0 23687-3 0 9990 2 45207 53.0540 115.5206 0002017 56.5777 303.5405 15.06401116126659